Date,TemperatureHighF,TemperatureAvgF,TemperatureLowF,DewpointHighF,DewpointAvgF,DewpointLowF,HumidityHigh,HumidityAvg,HumidityLow,PressureMaxIn,PressureMinIn,WindSpeedMaxMPH,WindSpeedAvgMPH,GustSpeedMaxMPH,PrecipitationSumIn
2013-1-1,32,30,29,31,30,28,99,98,96,30.50,30.37,0,0,0,0.00
2013-1-2,38,29,24,37,28,24,99,98,92,30.37,30.21,0,0,0,0.00
2013-1-3,38,29,20,36,27,20,99,94,82,30.21,30.14,2,0,7,0.12
2013-1-4,45,40,38,43,39,36,99,96,92,30.35,30.18,5,0,12,0.08
2013-1-5,40,37,34,38,35,33,99,94,84,30.21,30.14,0,0,3,0.03
2013-1-6,42,38,33,40,37,33,99,96,90,30.24,30.02,3,0,6,0.12
2013-1-7,48,44,40,48,44,40,99,98,92,30.20,29.94,4,0,9,0.42
2013-1-8,49,46,41,49,45,41,100,99,96,30.20,29.81,7,1,13,0.44
2013-1-9,49,39,31,47,38,31,99,96,88,29.98,29.70,8,0,14,0.69
2013-1-10,36,33,31,35,33,31,99,98,94,30.12,29.98,1,0,4,0.02
2013-1-11,37,29,22,32,27,22,99,92,60,30.33,30.12,3,0,7,0.00
2013-1-12,36,25,19,29,24,18,98,93,76,30.45,30.33,3,0,8,0.00
2013-1-13,34,24,16,28,22,15,98,92,70,30.51,30.45,2,0,5,0.00
2013-1-14,32,28,20,31,27,20,98,97,96,30.58,30.50,0,0,5,0.00
2013-1-15,37,32,29,36,31,29,99,98,94,30.70,30.58,2,0,5,0.09
2013-1-16,32,30,29,32,30,29,99,99,99,30.68,30.52,2,0,5,0.00
2013-1-17,33,30,28,32,30,28,99,99,98,30.53,30.32,0,0,2,0.00
2013-1-18,46,31,24,42,31,24,100,98,82,30.33,30.27,2,0,6,0.01
2013-1-19,32,30,28,32,30,28,99,99,98,30.38,30.32,3,0,6,0.00
2013-1-20,32,30,28,31,30,27,99,99,98,30.40,30.28,3,0,5,0.00
2013-1-21,42,29,25,38,29,24,99,97,86,30.29,30.15,0,0,3,0.00
2013-1-22,39,29,22,32,27,21,99,92,72,30.16,29.94,1,0,4,0.00
2013-1-23,35,34,33,35,32,29,99,94,83,30.20,29.90,2,0,6,0.17
2013-1-24,43,37,32,41,37,32,99,98,89,30.24,30.09,1,0,4,0.06
2013-1-25,51,42,33,47,41,32,99,97,86,30.10,29.95,2,0,7,0.03
2013-1-26,44,39,32,43,39,32,99,98,88,30.07,29.91,4,0,7,0.26
2013-1-27,40,37,33,39,37,33,99,99,96,30.12,30.04,2,0,8,0.09
2013-1-28,41,39,35,41,39,35,99,98,95,30.18,30.07,5,0,13,0.50
2013-1-29,48,43,40,46,43,39,100,97,88,30.43,30.18,4,0,9,0.18
2013-1-30,47,44,43,47,44,42,100,99,99,30.43,30.38,0,0,2,0.49
2013-1-31,46,44,40,46,44,40,100,99,97,30.45,30.34,1,0,4,0.05
2013-2-1,52,44,40,45,43,39,100,96,78,30.40,30.32,5,0,7,0.00
2013-2-2,48,39,30,45,38,30,99,96,84,30.36,30.26,3,0,5,0.00
2013-2-3,45,39,31,44,39,31,100,98,94,30.34,30.25,0,0,3,0.00
2013-2-4,51,44,39,44,42,38,99,93,75,30.24,29.93,3,0,4,0.00
2013-2-5,50,44,40,46,42,40,99,95,82,30.01,29.88,4,0,10,0.37
2013-2-6,46,42,40,44,42,40,99,96,89,30.08,29.81,3,0,11,0.34
2013-2-7,48,38,28,40,36,28,99,92,63,30.20,29.86,7,0,8,0.02
2013-2-8,44,36,27,38,34,27,99,91,73,30.32,30.20,7,0,9,0.00
2013-2-9,48,38,29,41,36,29,99,93,74,30.33,30.27,2,0,3,0.00
2013-2-10,45,41,39,39,38,37,97,89,74,30.38,30.33,4,0,7,0.00
2013-2-11,45,41,38,44,40,37,99,96,91,30.39,30.34,2,0,3,0.04
2013-2-12,51,45,41,47,44,41,99,94,82,30.45,30.38,6,0,8,0.00
2013-2-13,49,44,33,44,41,32,99,89,74,30.53,30.39,2,0,6,0.01
2013-2-14,46,40,31,45,40,31,99,98,95,30.58,30.53,0,0,4,0.01
2013-2-15,56,44,34,47,42,34,99,93,71,30.55,30.20,6,0,8,0.00
2013-2-16,49,41,34,46,39,33,99,93,71,30.27,30.21,7,1,15,0.08
2013-2-17,44,36,30,40,35,29,99,97,85,30.29,30.13,4,0,4,0.04
2013-2-18,44,38,32,39,35,32,99,91,75,30.12,29.76,5,0,9,0.05
2013-2-19,50,40,29,40,36,29,99,88,59,30.02,29.73,8,1,13,0.01
2013-2-20,44,36,28,40,35,27,99,95,79,30.09,30.01,6,0,8,0.08
2013-2-21,42,39,36,41,39,36,99,98,94,30.15,30.05,4,0,9,0.11
2013-2-22,44,40,33,43,39,32,99,97,89,30.13,29.83,5,1,16,1.02
2013-2-23,45,38,33,40,36,33,99,94,75,30.43,30.02,6,0,21,0.28
2013-2-24,47,41,35,40,37,34,98,87,72,30.44,30.00,6,0,15,0.00
2013-2-25,45,39,32,41,37,32,99,93,78,30.37,29.97,8,1,24,0.38
2013-2-26,46,38,29,40,35,29,99,89,69,30.39,30.24,4,0,8,0.01
2013-2-27,48,43,39,44,41,37,99,93,83,30.32,30.25,3,0,6,0.10
2013-2-28,52,48,42,51,47,42,99,98,94,30.39,30.19,4,0,8,0.28
2013-3-1,56,51,48,53,50,48,99,96,86,30.43,30.31,4,0,8,0.05
2013-3-2,55,46,35,50,44,34,99,94,83,30.32,30.14,5,0,20,0.06
2013-3-3,50,37,28,38,33,28,99,87,57,30.32,30.27,8,1,13,0.01
2013-3-4,57,36,26,37,30,23,99,82,29,30.30,29.93,6,0,9,0.00
2013-3-5,45,38,28,42,37,27,99,94,81,29.93,29.70,1,0,4,0.18
2013-3-6,43,41,39,42,40,38,99,98,95,29.93,29.59,4,0,6,0.32
2013-3-7,55,43,32,44,39,31,99,86,47,30.08,29.93,4,0,9,0.03
2013-3-8,51,40,30,42,38,30,99,91,69,30.25,30.08,6,0,11,0.00
2013-3-9,58,39,28,44,34,28,99,85,49,30.52,30.26,4,0,5,0.00
2013-3-10,44,38,28,44,37,28,98,97,94,30.53,30.44,0,0,0,0.06
2013-3-11,52,46,42,48,45,42,99,95,82,30.46,30.23,0,0,8,0.03
2013-3-12,53,50,48,51,48,47,98,95,86,30.22,30.14,4,0,9,0.08
2013-3-13,54,49,46,53,48,46,99,96,88,30.22,30.10,2,0,4,0.06
2013-3-14,56,49,46,52,47,44,99,92,74,30.19,30.06,2,0,8,0.01
2013-3-15,60,52,44,50,47,43,97,84,63,30.23,30.17,4,0,8,0.00
2013-3-16,50,44,37,46,42,35,98,93,76,30.18,30.00,6,1,12,0.20
2013-3-17,47,38,31,41,36,31,99,92,75,30.29,30.08,5,0,11,0.15
2013-3-18,52,40,29,45,35,28,98,86,51,30.27,30.23,7,1,11,0.12
2013-3-19,48,38,28,44,36,28,98,93,69,30.22,29.65,2,0,4,0.32
2013-3-20,50,43,34,49,41,33,98,93,87,30.12,29.46,7,1,20,0.86
2013-3-21,46,37,31,40,34,30,99,92,59,30.29,30.12,10,1,20,0.12
2013-3-22,45,36,28,37,33,28,99,90,63,30.40,30.29,13,1,13,0.02
2013-3-23,50,36,28,37,30,26,99,83,42,30.42,30.31,3,0,5,0.00
2013-3-24,54,39,28,39,34,28,98,83,48,30.31,30.12,7,0,10,0.00
2013-3-25,60,44,31,45,37,30,98,78,45,30.13,29.94,6,0,10,0.00
2013-3-26,60,49,40,47,43,40,98,83,50,30.03,29.97,3,0,7,0.02
2013-3-27,64,52,45,50,46,40,99,82,44,30.00,29.92,2,0,5,0.01
2013-3-28,62,51,46,52,48,44,98,88,54,30.14,30.00,3,0,7,0.25
2013-3-29,65,52,45,51,46,43,99,82,46,30.25,30.15,4,0,7,0.03
2013-3-30,70,54,40,48,44,39,98,73,44,30.24,30.04,8,1,12,0.00
2013-3-31,74,56,38,49,44,37,98,70,33,30.04,29.90,4,0,8,0.00
2013-4-1,68,53,41,51,46,40,98,81,43,30.18,30.00,4,0,8,0.00
2013-4-2,59,52,46,50,47,44,97,86,70,30.21,30.16,3,0,8,0.00
2013-4-3,65,53,40,51,46,39,98,80,53,30.20,29.93,2,0,5,0.00
2013-4-4,57,51,47,54,50,46,98,95,84,29.93,29.67,7,0,11,0.31
2013-4-5,58,51,47,53,49,47,98,95,77,29.91,29.75,7,0,11,1.37
2013-4-6,54,47,43,48,45,42,99,93,76,29.97,29.75,7,1,12,1.01
2013-4-7,48,44,39,46,42,38,99,95,87,29.94,29.48,4,0,17,1.01
2013-4-8,54,45,38,47,41,38,99,88,63,30.31,29.95,8,1,11,0.00
2013-4-9,55,45,34,46,41,34,99,87,68,30.37,30.23,4,0,7,0.00
2013-4-10,53,49,45,51,45,40,97,85,73,30.32,30.03,10,1,15,0.25
2013-4-11,55,45,33,43,38,32,98,79,48,30.35,30.21,10,1,16,0.00
2013-4-12,49,40,30,45,38,29,98,93,74,30.21,29.79,6,0,16,0.22
2013-4-13,49,40,34,44,38,33,98,90,70,30.06,29.89,8,1,19,0.20
2013-4-14,47,40,36,44,39,35,99,94,76,30.07,29.97,1,0,11,0.61
2013-4-15,56,42,32,44,36,32,99,83,44,30.20,29.97,5,1,13,0.27
2013-4-16,56,43,33,44,36,32,99,80,43,30.42,30.20,6,0,13,0.01
2013-4-17,58,43,29,44,37,28,99,81,51,30.50,30.42,6,0,12,0.00
2013-4-18,53,46,41,48,43,39,98,90,72,30.49,30.29,1,0,9,0.08
2013-4-19,55,50,47,52,48,46,98,93,75,30.28,30.11,9,1,15,0.28
2013-4-20,56,48,40,50,45,40,98,89,71,30.33,30.27,9,1,12,0.02
2013-4-21,55,46,40,48,42,39,98,87,58,30.36,30.25,12,1,14,0.04
2013-4-22,62,47,36,44,36,28,98,71,32,30.50,30.36,9,1,12,0.00
2013-4-23,65,48,28,38,30,23,98,57,25,30.43,30.22,4,0,12,0.00
2013-4-24,71,52,31,42,34,28,97,58,21,30.33,30.07,6,1,12,0.00
2013-4-25,74,53,34,47,40,34,98,67,33,30.19,30.06,8,1,13,0.00
2013-4-26,76,54,37,50,40,32,98,69,21,30.27,30.19,3,0,7,0.00
2013-4-27,59,48,37,50,44,36,98,85,57,30.27,30.22,0,0,6,0.03
2013-4-28,61,51,46,49,45,40,98,82,50,30.25,30.03,9,0,12,0.15
2013-4-29,54,46,36,48,38,31,97,75,42,30.23,30.02,19,3,23,0.09
2013-4-30,56,44,32,39,33,30,98,71,41,30.48,30.23,8,1,16,0.00
2013-5-1,65,46,26,38,31,26,98,62,29,30.57,30.49,9,1,11,0.00
2013-5-2,73,56,39,43,36,30,84,52,29,30.53,30.32,10,1,12,0.00
2013-5-3,74,59,47,47,40,36,72,52,28,30.37,30.20,10,2,19,0.00
2013-5-4,80,64,46,50,42,34,88,50,24,30.20,29.96,8,1,17,0.00
2013-5-5,85,66,42,46,41,37,92,47,18,29.97,29.73,8,0,15,0.00
2013-5-6,85,62,41,54,46,40,97,63,25,29.86,29.77,8,1,12,0.00
2013-5-7,71,57,45,54,50,44,97,79,53,30.05,29.86,6,0,11,0.00
2013-5-8,71,57,48,55,50,47,96,80,52,30.16,30.05,2,0,12,0.00
2013-5-9,76,58,43,55,49,42,98,77,40,30.23,30.10,8,0,12,0.00
2013-5-10,82,63,43,58,51,42,98,70,35,30.21,30.10,6,0,7,0.00
2013-5-11,85,65,51,58,54,49,92,70,38,30.20,30.01,4,0,10,0.00
2013-5-12,74,63,56,59,56,48,96,78,40,30.10,30.03,5,0,8,0.02
2013-5-13,63,55,38,57,50,37,98,85,55,30.23,29.99,6,0,18,0.06
2013-5-14,65,51,38,46,41,37,98,73,41,30.25,30.13,5,0,8,0.00
2013-5-15,59,49,37,52,46,36,98,88,68,30.14,30.03,1,0,4,0.03
2013-5-16,70,56,46,56,50,45,98,82,42,30.03,29.90,5,0,15,0.07
2013-5-17,64,53,44,54,50,43,98,88,52,30.10,29.98,3,0,5,0.27
2013-5-18,58,52,45,52,49,44,98,90,72,30.30,30.10,0,0,3,0.04
2013-5-19,65,54,43,51,47,41,97,78,48,30.42,30.30,7,1,9,0.02
2013-5-20,70,53,40,50,46,39,98,79,47,30.38,29.94,10,1,12,0.02
2013-5-21,53,47,42,50,44,40,97,89,71,29.95,29.83,8,1,18,0.38
2013-5-22,48,43,36,47,42,36,98,95,92,29.96,29.90,0,0,5,0.53
2013-5-23,49,45,36,48,44,35,98,98,97,30.01,29.96,0,0,5,1.07
2013-5-24,59,50,42,52,47,42,99,90,72,30.09,29.98,4,0,8,0.11
2013-5-25,62,52,44,52,48,43,98,86,59,30.08,29.97,5,0,8,0.01
2013-5-26,65,55,49,55,51,48,98,86,63,30.01,29.96,4,0,10,0.09
2013-5-27,62,54,49,58,52,48,98,93,75,29.98,29.72,3,0,9,0.39
2013-5-28,65,55,49,54,49,47,97,83,60,29.91,29.77,5,0,11,0.02
2013-5-29,60,52,48,53,49,46,98,88,66,30.04,29.67,6,0,15,0.57
2013-5-30,62,52,44,54,48,43,98,86,60,30.27,30.04,4,0,9,0.15
2013-5-31,65,54,43,50,46,42,98,77,49,30.35,30.25,4,0,9,0.00
2013-6-1,74,59,45,54,49,44,97,73,41,30.26,30.04,7,0,10,0.00
2013-6-2,70,58,48,53,50,46,96,75,49,30.11,30.05,7,1,11,0.00
2013-6-3,73,56,41,55,48,40,98,77,44,30.15,30.06,7,1,10,0.00
2013-6-4,81,61,39,56,49,39,98,69,35,30.14,30.01,7,1,13,0.00
2013-6-5,79,62,45,60,53,44,97,74,52,30.10,30.02,7,1,12,0.00
2013-6-6,81,61,46,59,50,44,98,72,34,30.08,30.01,6,1,15,0.00
2013-6-7,72,56,43,57,48,42,97,79,50,30.19,30.07,7,1,11,0.00
2013-6-8,74,57,40,53,47,39,97,73,43,30.21,30.10,6,1,12,0.00
2013-6-9,70,56,44,51,46,43,97,73,42,30.13,30.04,12,2,13,0.00
2013-6-10,67,52,36,49,43,35,98,76,45,30.06,29.93,7,1,15,0.00
2013-6-11,61,53,47,54,48,44,94,83,60,30.15,30.00,7,1,9,0.46
2013-6-12,62,53,44,55,49,43,98,88,61,30.18,30.14,2,0,7,0.16
2013-6-13,66,55,48,57,50,47,98,84,57,30.29,30.16,12,1,12,0.13
2013-6-14,65,56,47,54,50,46,96,82,62,30.29,30.04,7,0,8,0.00
2013-6-15,79,61,44,57,51,43,98,73,45,30.04,29.92,6,1,9,0.00
2013-6-16,71,59,46,58,52,45,98,81,60,30.11,30.02,4,0,8,0.00
2013-6-17,77,61,52,56,53,50,97,79,41,30.12,29.94,7,0,12,0.11
2013-6-18,68,56,47,57,50,46,98,82,52,30.00,29.94,9,0,13,0.01
2013-6-19,66,56,47,55,50,46,98,80,54,30.07,29.95,7,1,13,0.04
2013-6-20,61,54,48,55,50,46,98,86,67,30.16,30.04,9,1,14,0.10
2013-6-21,67,57,50,59,53,50,98,88,64,30.19,30.14,5,0,8,0.06
2013-6-22,80,62,45,58,52,44,98,74,34,30.14,29.85,6,0,7,0.00
2013-6-23,70,62,57,63,59,56,98,91,73,29.85,29.63,4,0,4,0.37
2013-6-24,68,59,54,58,56,53,98,90,67,29.70,29.60,2,0,7,0.39
2013-6-25,70,60,54,62,57,53,98,91,63,29.86,29.67,3,0,7,0.31
2013-6-26,69,61,56,63,59,55,99,91,73,30.06,29.85,4,0,7,0.05
2013-6-27,73,63,58,66,61,57,98,92,73,30.19,30.03,1,0,4,0.26
2013-6-28,90,72,60,69,63,59,98,78,43,30.18,30.04,4,1,11,0.00
2013-6-29,88,72,58,64,61,57,97,72,44,30.11,29.98,4,0,8,0.00
2013-6-30,93,74,55,69,63,55,98,72,41,30.00,29.84,7,1,11,0.00
2013-7-1,90,72,58,70,63,57,97,75,48,30.04,29.92,5,1,12,0.00
2013-7-2,82,67,53,64,58,52,97,75,48,30.11,30.04,9,1,13,0.00
2013-7-3,78,63,48,58,52,47,98,73,41,30.17,30.06,7,1,11,0.00
2013-7-4,70,60,49,54,52,48,96,76,54,30.15,30.07,11,1,12,0.00
2013-7-5,73,60,50,57,53,48,95,78,51,30.07,29.96,4,0,9,0.00
2013-7-6,78,58,46,59,52,45,98,83,47,30.00,29.87,7,1,12,0.00
2013-7-7,74,60,48,60,54,47,98,82,57,30.00,29.91,6,1,9,0.00
2013-7-8,78,60,48,62,55,48,97,83,57,30.11,30.00,4,0,9,0.00
2013-7-9,86,68,52,62,57,51,97,72,41,30.10,30.00,10,1,14,0.00
2013-7-10,74,60,48,54,50,46,97,72,42,30.09,29.98,8,2,13,0.00
2013-7-11,72,58,46,51,48,45,95,71,44,30.08,30.00,6,1,13,0.00
2013-7-12,70,55,42,53,48,41,98,78,49,30.13,30.02,8,1,11,0.00
2013-7-13,77,59,38,53,46,37,98,69,29,30.21,30.09,7,1,13,0.00
2013-7-14,82,65,47,53,48,42,94,58,28,30.13,30.00,10,2,15,0.00
2013-7-15,82,63,43,56,48,42,98,64,25,30.05,29.86,13,1,16,0.00
2013-7-16,85,71,52,61,54,46,86,56,38,29.93,29.79,6,1,11,0.00
2013-7-17,72,62,53,58,55,51,94,79,58,30.20,29.93,5,0,9,0.00
2013-7-18,77,60,43,61,54,42,98,81,56,30.25,30.11,6,1,11,0.00
2013-7-19,79,62,47,62,55,46,97,80,55,30.18,30.04,7,1,16,0.00
2013-7-20,77,60,49,61,54,48,97,82,52,30.11,29.98,7,1,14,0.00
2013-7-21,77,61,49,60,55,48,97,81,54,30.00,29.93,7,1,10,0.00
2013-7-22,75,62,50,62,56,49,97,82,63,30.07,29.98,8,1,10,0.00
2013-7-23,86,65,53,63,56,52,98,79,36,30.07,29.95,7,1,13,0.00
2013-7-24,85,65,50,62,55,49,97,74,42,30.08,29.98,8,1,11,0.00
2013-7-25,85,65,48,58,52,47,97,69,32,30.12,30.03,9,1,13,0.00
2013-7-26,83,64,45,58,50,42,98,66,27,30.16,30.08,11,2,16,0.00
2013-7-27,76,60,45,55,49,44,96,70,37,30.19,30.03,5,1,12,0.00
2013-7-28,67,56,43,55,50,42,98,81,64,30.06,30.00,6,0,8,0.00
2013-7-29,77,63,54,59,54,51,91,74,49,30.04,29.94,5,1,9,0.00
2013-7-30,78,62,52,60,55,50,96,81,51,30.16,30.04,6,0,10,0.00
2013-7-31,74,61,52,62,56,51,97,83,59,30.14,30.01,4,0,9,0.00
2013-8-1,67,60,55,57,55,53,94,84,69,30.10,30.06,2,0,5,0.00
2013-8-2,66,59,50,60,55,49,97,87,72,30.14,30.09,6,0,7,0.00
2013-8-3,73,64,56,60,57,54,95,79,61,30.12,30.04,8,1,12,0.00
2013-8-4,85,69,56,63,59,55,95,74,44,30.05,29.92,6,1,12,0.00
2013-8-5,85,66,52,62,56,51,98,75,44,30.02,29.93,10,1,12,0.00
2013-8-6,88,66,46,60,53,46,97,70,35,30.02,29.91,6,1,11,0.00
2013-8-7,85,65,52,60,55,51,98,75,39,30.04,29.95,9,1,13,0.00
2013-8-8,81,64,54,64,57,52,95,79,52,30.05,29.93,6,1,13,0.00
2013-8-9,80,63,50,62,57,49,98,80,50,29.96,29.86,6,0,10,0.02
2013-8-10,76,64,57,64,59,54,98,86,63,30.04,29.89,6,0,9,0.06
2013-8-11,71,61,54,60,56,52,94,82,64,30.08,30.01,4,0,8,0.00
2013-8-12,75,63,53,57,55,51,94,75,52,30.09,30.02,5,0,10,0.00
2013-8-13,83,63,45,57,52,44,98,72,34,30.12,29.92,9,0,10,0.00
2013-8-14,82,62,50,62,56,49,98,83,40,29.96,29.92,4,0,8,0.10
2013-8-15,69,64,59,66,63,59,98,96,88,29.99,29.93,3,0,6,0.14
2013-8-16,86,68,58,66,60,55,99,79,38,30.04,29.95,6,0,9,0.00
2013-8-17,77,64,53,62,58,52,98,81,50,30.09,30.03,5,0,9,0.00
2013-8-18,76,63,51,61,56,50,98,80,57,30.14,30.07,5,1,12,0.00
2013-8-19,78,62,48,60,55,48,98,78,46,30.12,30.07,9,1,13,0.00
2013-8-20,78,62,46,55,50,45,98,70,32,30.16,30.04,11,2,15,0.00
2013-8-21,83,68,55,54,50,48,77,55,33,30.06,29.90,11,2,12,0.00
2013-8-22,82,68,53,63,56,50,90,66,45,29.92,29.82,6,0,8,0.00
2013-8-23,76,65,57,59,57,55,95,77,52,29.92,29.87,5,0,7,0.00
2013-8-24,73,63,53,60,56,51,97,80,51,29.93,29.86,5,0,10,0.09
2013-8-25,66,58,46,60,54,45,98,88,68,29.95,29.89,3,0,8,0.00
2013-8-26,74,63,58,61,58,53,98,84,52,29.96,29.88,3,0,11,0.04
2013-8-27,79,66,57,63,60,57,98,82,53,29.96,29.80,4,0,7,0.01
2013-8-28,79,68,61,65,62,60,98,83,53,29.91,29.83,5,0,6,0.13
2013-8-29,73,65,60,70,64,60,98,95,81,30.05,29.84,5,0,8,0.91
2013-8-30,77,66,58,62,59,54,99,80,48,30.15,30.06,7,0,10,0.00
2013-8-31,83,65,49,61,57,48,99,78,46,30.07,29.83,9,1,11,0.00
2013-9-1,83,64,52,62,56,51,99,77,38,29.90,29.80,4,0,9,0.00
2013-9-2,80,66,55,61,58,54,97,77,48,29.94,29.87,5,1,8,0.00
2013-9-3,74,64,58,64,60,56,98,88,63,30.01,29.93,5,0,7,0.34
2013-9-4,71,62,55,63,59,54,98,90,72,30.06,29.99,5,0,7,0.03
2013-9-5,67,62,58,62,60,58,98,94,83,30.04,29.96,4,0,9,2.08
2013-9-6,66,61,58,64,60,58,99,96,88,30.12,29.96,2,0,4,1.48
2013-9-7,75,63,55,62,59,55,99,87,62,30.12,30.00,6,0,10,0.00
2013-9-8,80,66,57,64,60,56,98,83,48,30.11,30.01,5,1,11,0.00
2013-9-9,77,64,57,66,60,57,98,87,64,30.06,29.95,7,1,12,0.00
2013-9-10,80,67,58,66,61,57,97,83,59,29.97,29.84,6,1,12,0.00
2013-9-11,90,72,54,67,62,53,98,75,44,29.92,29.85,7,1,8,0.00
2013-9-12,81,71,57,67,62,56,96,77,58,29.96,29.90,5,1,9,0.00
2013-9-13,70,61,56,62,59,55,98,92,76,29.98,29.87,3,0,8,0.00
2013-9-14,70,63,57,63,60,56,97,90,76,29.88,29.73,5,0,8,0.00
2013-9-15,66,61,55,63,60,55,98,96,90,29.85,29.72,0,0,3,0.06
2013-9-16,68,60,52,63,58,51,97,93,79,29.95,29.85,3,0,7,0.16
2013-9-17,68,55,47,56,52,47,99,89,61,29.98,29.87,5,0,10,0.04
2013-9-18,68,55,44,56,50,44,99,85,52,30.09,29.99,4,0,7,0.00
2013-9-19,80,56,40,57,48,40,99,80,39,30.04,29.78,2,0,6,0.00
2013-9-20,70,55,43,58,51,43,99,90,53,29.79,29.62,3,0,7,0.07
2013-9-21,70,56,51,59,55,50,99,94,62,29.75,29.67,4,0,7,0.71
2013-9-22,59,54,53,58,54,52,99,97,91,29.80,29.60,4,0,17,0.53
2013-9-23,60,54,46,57,53,46,99,96,85,30.00,29.81,4,0,9,0.15
2013-9-24,60,51,46,54,50,46,99,96,68,29.99,29.85,4,0,9,0.35
2013-9-25,56,50,44,52,49,43,99,95,82,30.05,29.86,4,0,7,0.08
2013-9-26,64,50,42,53,47,42,99,90,61,30.17,30.05,3,0,7,0.00
2013-9-27,53,50,43,53,50,43,99,98,97,30.16,29.89,7,0,9,0.54
2013-9-28,59,54,50,58,54,50,99,98,93,29.89,29.43,10,1,17,2.59
2013-9-29,53,51,47,53,51,46,99,98,95,29.62,29.24,4,0,16,1.73
2013-9-30,56,50,46,53,49,45,99,97,84,29.97,29.52,4,0,7,1.17
2013-10-1,57,49,46,51,48,46,99,94,73,30.18,29.95,4,0,9,0.26
2013-10-2,53,48,44,51,47,44,99,97,87,30.19,30.07,3,0,6,0.30
2013-10-3,57,48,38,49,45,38,99,92,67,30.45,30.19,2,0,9,0.00
2013-10-4,68,46,32,54,43,32,99,89,47,30.49,30.37,3,0,6,0.01
2013-10-5,68,49,35,54,45,35,99,86,55,30.38,30.15,2,0,7,0.00
2013-10-6,72,52,36,51,45,36,99,80,39,30.14,29.94,3,0,11,0.00
2013-10-7,58,52,49,53,50,47,98,92,76,30.11,29.95,4,0,9,0.16
2013-10-8,55,47,37,51,46,37,98,96,74,30.11,29.98,5,0,11,0.38
2013-10-9,58,44,36,49,42,35,99,93,67,30.16,29.99,3,0,6,0.01
2013-10-10,56,48,42,52,47,41,99,96,87,30.09,29.97,1,0,4,0.08
2013-10-11,54,49,44,51,48,44,99,96,87,30.15,30.08,0,0,0,0.00
2013-10-12,53,47,43,49,45,42,99,95,79,30.21,30.08,5,0,6,0.14
2013-10-13,58,46,37,50,44,37,99,93,69,30.36,30.21,4,0,13,0.01
2013-10-14,59,44,36,50,42,35,99,92,68,30.42,30.35,5,0,10,0.00
2013-10-15,63,44,32,50,40,32,99,88,56,30.39,30.18,2,0,6,0.01
2013-10-16,53,45,37,50,44,36,99,96,87,30.21,30.15,4,0,7,0.00
2013-10-17,58,47,40,51,46,39,99,95,77,30.27,30.21,5,0,7,0.00
2013-10-18,57,44,36,52,43,36,99,96,82,30.24,30.15,3,0,9,0.00
2013-10-19,51,44,38,49,44,38,99,98,90,30.19,30.15,3,0,7,0.01
2013-10-20,48,45,42,47,45,42,99,99,96,30.20,30.14,4,0,7,0.01
2013-10-21,53,46,43,50,45,43,99,97,88,30.16,30.07,6,1,9,0.00
2013-10-22,63,49,41,55,47,41,99,95,73,30.11,30.01,6,0,7,0.00
2013-10-23,59,45,39,53,44,38,99,96,79,30.05,29.98,4,0,7,0.01
2013-10-24,57,48,43,53,47,43,99,97,87,30.14,30.03,3,0,5,0.01
2013-10-25,56,50,48,52,49,46,99,93,80,30.30,30.14,3,0,5,0.02
2013-10-26,52,48,44,47,46,43,98,91,83,30.32,30.19,6,1,10,0.00
2013-10-27,54,47,39,49,45,38,99,93,77,30.20,29.90,5,0,12,0.10
2013-10-28,58,47,35,44,39,33,98,75,46,29.95,29.86,3,0,12,0.00
2013-10-29,61,38,27,42,33,26,99,86,42,30.07,29.95,1,0,4,0.00
2013-10-30,55,41,28,45,38,27,99,89,68,30.18,30.07,2,0,4,0.04
2013-10-31,56,50,45,52,48,44,98,94,85,30.28,30.15,2,0,6,0.05
2013-11-1,62,50,46,52,48,46,99,93,67,30.30,29.88,0,0,9,0.05
2013-11-2,54,47,37,50,44,37,98,91,64,30.00,29.62,10,1,23,0.51
2013-11-3,49,40,30,43,38,30,99,92,70,30.14,29.99,6,1,11,0.03
2013-11-4,48,41,31,45,40,31,99,96,86,30.19,30.07,0,0,2,0.17
2013-11-5,52,47,40,50,46,40,99,97,88,30.27,30.06,3,0,7,0.08
2013-11-6,51,45,39,49,44,39,99,97,88,30.33,30.06,0,0,3,0.29
2013-11-7,52,48,45,52,48,44,99,98,93,30.09,29.80,6,0,13,1.01
2013-11-8,52,45,38,49,44,38,99,98,88,30.18,30.09,1,0,3,0.11
2013-11-9,44,40,34,43,40,34,99,99,98,30.15,30.08,3,0,4,0.02
2013-11-10,52,46,42,48,45,41,99,96,85,30.13,30.07,5,0,7,0.00
2013-11-11,57,47,41,51,45,41,99,95,77,30.17,30.02,2,0,5,0.00
2013-11-12,56,48,41,53,47,41,100,98,90,30.42,30.06,3,0,9,0.12
2013-11-13,51,46,40,51,46,39,100,99,98,30.48,30.33,0,0,0,0.02
2013-11-14,51,43,38,48,42,38,100,97,81,30.33,30.11,0,0,4,0.04
2013-11-15,46,42,37,45,42,37,99,98,91,30.11,29.48,8,0,17,0.28
2013-11-16,46,42,39,43,40,38,99,95,79,29.84,29.50,10,1,15,0.12
2013-11-17,48,45,39,48,45,39,99,99,98,29.95,29.84,4,0,11,0.51
2013-11-18,50,48,46,50,48,46,99,99,98,29.95,29.63,3,0,15,1.03
2013-11-19,50,43,31,50,41,30,99,93,79,30.05,29.65,9,1,16,0.19
2013-11-20,41,33,29,32,29,26,98,85,62,30.48,30.05,11,1,15,0.01
2013-11-21,42,31,24,31,27,23,97,84,56,30.64,30.49,6,0,9,0.00
2013-11-22,44,31,24,32,27,23,97,88,57,30.63,30.46,2,0,6,0.00
2013-11-23,45,30,22,37,28,21,99,93,68,30.45,30.22,2,0,3,0.01
2013-11-24,48,31,23,35,28,23,99,91,58,30.29,30.19,1,0,3,0.00
2013-11-25,50,33,25,37,30,25,99,89,58,30.36,30.29,1,0,2,0.00
2013-11-26,48,36,26,40,33,25,99,91,59,30.29,30.11,0,0,3,0.02
2013-11-27,53,39,30,45,37,30,99,95,74,30.10,29.97,0,0,2,0.00
2013-11-28,50,34,26,41,32,26,99,94,67,30.23,30.04,0,0,0,0.01
2013-11-29,44,37,28,41,36,28,99,96,89,30.36,30.23,0,0,0,0.00
2013-11-30,48,44,40,45,43,39,99,96,88,30.38,30.16,4,0,8,0.21
2013-12-1,53,49,43,52,48,39,99,97,85,30.15,29.89,13,1,19,0.97
2013-12-2,43,36,32,39,35,31,99,94,77,30.06,29.91,6,0,21,0.16
2013-12-3,38,31,24,33,29,23,99,91,72,30.32,30.06,6,1,9,0.00
2013-12-4,33,23,18,29,22,17,98,95,79,30.37,30.31,0,0,0,0.00
2013-12-5,30,21,13,27,20,12,97,94,84,30.34,30.18,0,0,1,0.00
2013-12-6,31,25,18,24,17,11,97,71,47,30.18,30.06,4,0,10,0.00
2013-12-7,28,17,8,12,9,6,92,72,39,30.46,30.18,3,0,6,0.00
2013-12-8,29,16,6,19,12,4,94,85,55,30.62,30.46,2,0,4,0.00
2013-12-9,27,22,11,25,19,9,95,88,81,30.62,30.53,0,0,4,0.00
2013-12-10,32,30,26,32,29,25,98,97,94,30.54,30.43,0,0,2,0.01
2013-12-11,34,31,28,34,31,27,99,98,98,30.43,30.20,0,0,1,0.00
2013-12-12,39,32,27,38,32,26,99,98,98,30.20,30.09,1,0,8,0.06
2013-12-13,47,41,38,45,41,38,99,98,94,30.45,30.20,2,0,7,0.01
2013-12-14,44,40,36,43,39,36,99,98,95,30.46,30.37,0,0,5,0.00
2013-12-15,47,42,39,46,41,39,99,97,92,30.49,30.39,2,0,5,0.02
2013-12-16,42,40,38,42,40,38,99,99,97,30.50,30.28,3,0,5,0.01
2013-12-17,40,38,36,39,37,35,99,99,97,30.28,30.17,0,0,3,0.02
2013-12-18,44,36,28,43,36,27,100,96,81,30.18,30.06,6,0,9,0.00
2013-12-19,36,30,26,32,28,26,99,92,70,30.36,30.16,4,0,7,0.00
2013-12-20,40,34,29,40,34,28,99,98,96,30.23,29.83,6,0,13,0.07
2013-12-21,46,42,37,46,42,37,100,99,98,30.20,29.92,3,0,3,0.06
2013-12-22,49,46,43,48,46,43,99,98,96,30.35,30.20,2,0,6,0.03
2013-12-23,49,44,31,49,43,31,99,97,89,30.55,30.24,5,0,16,0.39
2013-12-24,46,36,31,42,36,30,100,97,79,30.63,30.54,4,0,6,0.00
2013-12-25,36,34,31,36,34,31,99,99,98,30.53,30.42,1,0,4,0.01
2013-12-26,42,32,27,42,32,27,100,99,95,30.42,30.23,0,0,2,0.00
2013-12-27,39,34,28,39,34,27,100,99,99,30.41,30.18,0,0,2,0.02
2013-12-28,43,38,32,41,37,32,100,98,92,30.53,30.41,1,0,5,0.01
2013-12-29,41,36,35,39,36,35,99,99,94,30.49,30.33,0,0,4,0.00
2013-12-30,41,38,36,41,38,35,100,98,94,30.33,30.16,3,0,4,0.00
2013-12-31,45,42,39,44,41,38,99,98,95,30.39,30.23,0,0,2,0.04
2014-1-1,44,40,32,43,39,32,100,98,92,30.40,30.27,2,0,6,0.00
2014-1-2,48,43,39,43,41,39,99,92,75,30.26,29.99,3,0,10,0.13